Location: Presov
(49.0000°N, 21.2500°E)
Time: 06:50:53
(UTC+02:00)

Transit 2A Rocket - Pass Details

Date: 14 April 2021
Orbit: 594 x 909 km, 66.7° (Epoch: 07 May)

Event Time Altitude Azimuth Distance (km) Brightness Sun altitude
Rises 00:41:36 0° 328° (NNW) 2,851 8.7 -31.6°
Reaches altitude 10° 00:44:02 10° 339° (NNW) 1,960 7.9 -31.6°
Enters shadow 00:47:17 29° 26° (NNE) 1,133 6.3 -31.5°
Maximum altitude 00:47:57 31° 43° (NE) 1,105 - -31.5°
Drops below altitude 10° 00:52:02 10° 106° (ESE) 2,052 - -31.5°
Sets 00:54:37 0° 116° (ESE) 3,009 - -31.4°
